Flag for Germany Weather past 2 weeks in Seevetal, Lower Saxony, Germany

Now
59 °F

Passing clouds.


Feels Like: 58 °F
Forecast: 44 / 71 °F
Wind: 8 mph from Northwest

Location: Hamburg-Finkenwerder

Current Time: Jul 31, 2015 at 9:43:02 PM

Latest Report: Jul 31, 2015 at 8:20 PM


Visibility: N/A

Pressure: 30.07 "Hg

Humidity: 59%

Dew point: 45 °F

Location of SeevetalLocation

Historic Weather in Seevetal — Graph

°F

Seevetal temperature yesterday

Maximum temperature yesterday: 63 °F (at 4:20 PM)
Minimum temperature yesterday: 55 °F (at 6:20 AM)
Average temperature yesterday: 58 °F

Past Weeks' High & Low Weather Summary

 TemperatureHumidityPressure
High88 °F (Jul 17, 4:20 PM)100% (Jul 18, 7:50 AM)30.09 "Hg (Jul 18, 7:50 AM)
Low54 °F (Jul 20, 5:50 AM)41% (Jul 24, 4:20 PM)29.45 "Hg (Jul 27, 2:50 PM)
Average65 °F74%29.81 "Hg
* Reported Jul 17 5:50 AM — Jul 31 8:20 PM, Seevetal, Weather by CustomWeather, © 2015

Note: Actual official high and low records may vary slightly from our data, if they occured in-between our weather recording intervals... More about our weather records

Advertising

Seevetal weather history for previous 24 hours

 ConditionsComfort  
Time TempWeatherWind HumidityBarometerVisibility
8:20 PM
Fri, Jul 31
59 °FPassing clouds.8 mph59%30.07 "HgN/A
7:50 PM61 °FPassing clouds.9 mph55%30.07 "HgN/A
7:20 PM61 °FPassing clouds.12 mph55%30.07 "HgN/A
6:50 PM61 °FPassing clouds.12 mph55%30.07 "HgN/A
6:20 PM63 °FScattered clouds.12 mph52%30.07 "HgN/A
5:50 PM63 °FScattered clouds.13 mph56%30.07 "HgN/A
5:20 PM63 °FSunny.13 mph52%30.07 "Hg10 mi
4:50 PM63 °FScattered clouds.16 mph52%30.07 "HgN/A
4:20 PM63 °FScattered clouds.14 mph56%30.07 "HgN/A
3:50 PM63 °FScattered clouds.15 mph52%30.07 "HgN/A
3:20 PM63 °FScattered clouds.15 mph52%30.07 "HgN/A
2:50 PM61 °FScattered clouds.14 mph55%30.07 "HgN/A
2:20 PM59 °FBroken clouds.12 mph68%30.09 "HgN/A
1:50 PM59 °FBroken clouds.12 mph68%30.09 "HgN/A
1:20 PM59 °FPartly sunny.10 mph68%30.07 "HgN/A
12:50 PM57 °FBroken clouds.14 mph77%30.07 "HgN/A
12:20 PM57 °FPartly sunny.6 mph77%30.07 "HgN/A
11:50 AM57 °FScattered showers. Broken clouds.12 mph72%30.07 "HgN/A
11:20 AM57 °FBroken clouds.10 mph72%30.07 "HgN/A
10:50 AM57 °FSprinkles. Broken clouds.16 mph77%30.07 "HgN/A
10:20 AM57 °FSprinkles. Broken clouds.14 mph77%30.07 "HgN/A
9:50 AM57 °FBroken clouds.13 mph77%30.07 "HgN/A
9:20 AM55 °FBroken clouds.13 mph82%30.04 "HgN/A
8:50 AM54 °FScattered showers. Partly sunny.13 mph88%30.04 "HgN/A
8:20 AM54 °FBroken clouds.13 mph94%30.04 "HgN/A
7:50 AM54 °FSprinkles. Broken clouds.10 mph94%30.04 "HgN/A
7:20 AM54 °FPartly sunny.9 mph88%30.01 "HgN/A
6:50 AM54 °FBroken clouds.8 mph88%30.01 "HgN/A
6:20 AM54 °FSprinkles. Partly cloudy.13 mph94%30.01 "HgN/A
5:50 AM54 °FPartly cloudy.10 mph88%30.01 "HgN/A
Weather by CustomWeather, © 2015

See weather overviewHow to use our weather pages